| time (UTC) | temp C | wind direction | speed KPH | gust KPH | rain 1hr cm | rain 24hr cm | rain mn cm | humidity % | barometer mb |
| 20260505125027 | 19 | 224 | 16.1 | 33.8 | 0.00 | 0.00 | 0.00 | 66 | 1015.4 |
| 20260505124528 | 19 | 246 | 11.3 | 22.5 | 0.00 | 0.00 | 0.00 | 66 | 1015.4 |
| 20260505124028 | 19 | 217 | 4.8 | 27.4 | 0.00 | 0.00 | 0.00 | 66 | 1015.3 |
| 20260505123527 | 19 | 225 | 6.4 | 27.4 | 0.00 | 0.00 | 0.00 | 66 | 1015.3 |
| 20260505123027 | 18 | 243 | 8.0 | 24.1 | 0.00 | 0.00 | 0.00 | 66 | 1015.3 |
| 20260505122527 | 18 | 277 | 16.1 | 30.6 | 0.00 | 0.00 | 0.00 | 66 | 1015.3 |
| 20260505122027 | 18 | 218 | 16.1 | 30.6 | 0.00 | 0.00 | 0.00 | 67 | 1015.3 |
| 20260505121527 | 18 | 258 | 20.9 | 22.5 | 0.00 | 0.00 | 0.00 | 68 | 1015.3 |
| 20260505121026 | 18 | 216 | 4.8 | 22.5 | 0.00 | 0.00 | 0.00 | 68 | 1015.3 |
| 20260505120527 | 18 | 221 | 3.2 | 22.5 | 0.00 | 0.00 | 0.00 | 69 | 1015.3 |
| 20260505120027 | 18 | 162 | 14.5 | 22.5 | 0.00 | 0.00 | 0.00 | 69 | 1015.3 |
| 20260505115527 | 18 | 230 | 9.7 | 22.5 | 0.00 | 0.00 | 0.00 | 69 | 1014.9 |
| 20260505115027 | 18 | 162 | 14.5 | 22.5 | 0.00 | 0.00 | 0.00 | 69 | 1014.9 |
| 20260505114526 | 18 | 220 | 6.4 | 24.1 | 0.00 | 0.00 | 0.00 | 69 | 1014.9 |
| 20260505114026 | 18 | 212 | 20.9 | 25.7 | 0.00 | 0.00 | 0.00 | 70 | 1014.9 |
| 20260505113526 | 17 | 224 | 4.8 | 25.7 | 0.00 | 0.00 | 0.00 | 70 | 1014.9 |
| 20260505113027 | 17 | 224 | 14.5 | 19.3 | 0.00 | 0.00 | 0.00 | 70 | 1014.9 |
| 20260505112526 | 17 | 219 | 16.1 | 22.5 | 0.00 | 0.00 | 0.00 | 69 | 1015.0 |
| 20260505111526 | 17 | 221 | 19.3 | 25.7 | 0.00 | 0.00 | 0.00 | 69 | 1015.0 |
| 20260505111026 | 17 | 252 | 9.7 | 25.7 | 0.00 | 0.00 | 0.00 | 69 | 1014.9 |
| 20260505110526 | 17 | 200 | 9.7 | 27.4 | 0.00 | 0.00 | 0.00 | 69 | 1014.9 |
| 20260505102026 | 17 | 224 | 11.3 | 25.7 | 0.00 | 0.00 | 0.00 | 69 | 1014.3 |
| 20260505101526 | 17 | 200 | 16.1 | 20.9 | 0.00 | 0.00 | 0.00 | 70 | 1014.3 |
| 20260505101026 | 17 | 269 | 4.8 | 20.9 | 0.00 | 0.00 | 0.00 | 70 | 1014.3 |
| 20260505100526 | 17 | 198 | 3.2 | 19.3 | 0.00 | 0.00 | 0.00 | 71 | 1014.3 |
| 20260505100026 | 17 | 250 | 8.0 | 19.3 | 0.00 | 0.00 | 0.00 | 71 | 1014.3 |
| 20260505095526 | 17 | 219 | 19.3 | 19.3 | 0.00 | 0.00 | 0.00 | 71 | 1014.2 |
| 20260505094026 | 17 | 262 | 17.7 | 25.7 | 0.00 | 0.00 | 0.00 | 70 | 1013.9 |
| 20260505093526 | 17 | 203 | 9.7 | 25.7 | 0.00 | 0.00 | 0.00 | 70 | 1013.9 |
| 20260505093026 | 17 | 115 | 6.4 | 25.7 | 0.00 | 0.00 | 0.00 | 70 | 1013.9 |
| 20260505092526 | 17 | 259 | 25.7 | 25.7 | 0.00 | 0.00 | 0.00 | 70 | 1013.8 |
| 20260505092026 | 17 | 198 | 9.7 | 20.9 | 0.00 | 0.00 | 0.00 | 70 | 1013.8 |
| 20260505091526 | 17 | 236 | 8.0 | 20.9 | 0.00 | 0.00 | 0.00 | 70 | 1013.8 |
| 20260505090526 | 17 | 181 | 9.7 | 20.9 | 0.00 | 0.00 | 0.00 | 70 | 1013.8 |
| 20260505090026 | 17 | 239 | 11.3 | 24.1 | 0.00 | 0.00 | 0.00 | 70 | 1013.8 |
| 20260505085526 | 17 | 243 | 11.3 | 24.1 | 0.00 | 0.00 | 0.00 | 70 | 1013.9 |
| 20260505085026 | 17 | 257 | 4.8 | 20.9 | 0.00 | 0.00 | 0.00 | 70 | 1013.9 |
| 20260505084527 | 17 | 245 | 0.0 | 20.9 | 0.00 | 0.00 | 0.00 | 70 | 1013.9 |
| 20260505084026 | 17 | 257 | 6.4 | 22.5 | 0.00 | 0.00 | 0.00 | 70 | 1013.9 |
| 20260505083526 | 17 | 218 | 1.6 | 22.5 | 0.00 | 0.00 | 0.00 | 69 | 1013.9 |
| 20260505083026 | 17 | 212 | 6.4 | 22.5 | 0.00 | 0.00 | 0.00 | 69 | 1013.9 |
| 20260505082526 | 17 | 267 | 12.9 | 20.9 | 0.00 | 0.00 | 0.00 | 69 | 1013.9 |
| 20260505082026 | 18 | 237 | 9.7 | 19.3 | 0.00 | 0.00 | 0.00 | 69 | 1013.9 |
| 20260505081526 | 18 | 221 | 11.3 | 17.7 | 0.00 | 0.00 | 0.00 | 70 | 1013.9 |
| 20260505081026 | 18 | 206 | 9.7 | 17.7 | 0.00 | 0.00 | 0.00 | 69 | 1013.8 |
| 20260505080526 | 17 | 222 | 6.4 | 19.3 | 0.00 | 0.00 | 0.00 | 70 | 1013.8 |
| 20260505080026 | 17 | 219 | 3.2 | 19.3 | 0.00 | 0.00 | 0.00 | 69 | 1013.8 |
| 20260505075526 | 17 | 225 | 8.0 | 19.3 | 0.00 | 0.00 | 0.00 | 70 | 1013.8 |
| 20260505075026 | 17 | 209 | 9.7 | 17.7 | 0.00 | 0.00 | 0.00 | 70 | 1013.8 |
| 20260505074526 | 17 | 221 | 4.8 | 17.7 | 0.00 | 0.00 | 0.00 | 70 | 1013.8 |
| 20260505074026 | 17 | 213 | 6.4 | 11.3 | 0.00 | 0.00 | 0.00 | 70 | 1013.8 |
| 20260505073526 | 17 | 222 | 3.2 | 17.7 | 0.00 | 0.00 | 0.00 | 69 | 1013.8 |
| 20260505073026 | 18 | 258 | 1.6 | 17.7 | 0.00 | 0.00 | 0.00 | 69 | 1013.8 |
| 20260505072526 | 18 | 210 | 8.0 | 20.9 | 0.00 | 0.00 | 0.00 | 69 | 1013.8 |
| 20260505072025 | 18 | 182 | 8.0 | 20.9 | 0.00 | 0.00 | 0.00 | 69 | 1013.8 |
| 20260505071526 | 18 | 226 | 6.4 | 20.9 | 0.00 | 0.00 | 0.00 | 69 | 1013.8 |
| 20260505071026 | 18 | 227 | 9.7 | 22.5 | 0.00 | 0.00 | 0.00 | 69 | 1013.8 |
| 20260505065526 | 18 | 222 | 11.3 | 22.5 | 0.00 | 0.00 | 0.00 | 68 | 1013.6 |
| 20260505065026 | 18 | 205 | 9.7 | 25.7 | 0.00 | 0.00 | 0.00 | 68 | 1013.6 |
| 20260505064526 | 18 | 217 | 20.9 | 32.2 | 0.00 | 0.00 | 0.00 | 67 | 1013.6 |
| 20260505064026 | 18 | 252 | 20.9 | 32.2 | 0.00 | 0.00 | 0.00 | 68 | 1013.6 |
| 20260505063525 | 18 | 226 | 9.7 | 29.0 | 0.00 | 0.00 | 0.00 | 68 | 1013.6 |
| 20260505062525 | 18 | 223 | 4.8 | 25.7 | 0.00 | 0.00 | 0.00 | 67 | 1013.6 |
| 20260505062025 | 18 | 231 | 22.5 | 25.7 | 0.00 | 0.00 | 0.00 | 68 | 1013.6 |
| 20260505061525 | 18 | 226 | 24.1 | 24.1 | 0.00 | 0.00 | 0.00 | 67 | 1013.6 |
| 20260505061025 | 18 | 218 | 14.5 | 20.9 | 0.00 | 0.00 | 0.00 | 68 | 1013.7 |
| 20260505060525 | 18 | 207 | 6.4 | 20.9 | 0.00 | 0.00 | 0.00 | 68 | 1013.7 |
| 20260505055525 | 18 | 223 | 9.7 | 22.5 | 0.00 | 0.00 | 0.00 | 68 | 1013.7 |
| 20260505054525 | 18 | 196 | 8.0 | 29.0 | 0.00 | 0.00 | 0.00 | 67 | 1013.7 |
| 20260505054025 | 18 | 209 | 14.5 | 29.0 | 0.00 | 0.00 | 0.00 | 68 | 1013.7 |
| 20260505053525 | 18 | 198 | 20.9 | 25.7 | 0.00 | 0.00 | 0.00 | 68 | 1013.7 |
| 20260505053025 | 18 | 212 | 4.8 | 25.7 | 0.00 | 0.00 | 0.00 | 68 | 1013.7 |
| 20260505052525 | 18 | 293 | 9.7 | 25.7 | 0.00 | 0.00 | 0.00 | 67 | 1013.6 |
| 20260505052025 | 18 | 180 | 17.7 | 24.1 | 0.00 | 0.00 | 0.00 | 67 | 1013.6 |
| 20260505051525 | 18 | 233 | 8.0 | 22.5 | 0.00 | 0.00 | 0.00 | 67 | 1013.6 |
| 20260505051025 | 19 | 209 | 9.7 | 27.4 | 0.00 | 0.00 | 0.00 | 67 | 1013.5 |
| 20260505050525 | 19 | 221 | 8.0 | 27.4 | 0.00 | 0.00 | 0.00 | 66 | 1013.5 |
| 20260505041525 | 20 | 212 | 19.3 | 33.8 | 0.00 | 0.00 | 0.00 | 66 | 1013.8 |
| 20260505041025 | 20 | 200 | 19.3 | 33.8 | 0.00 | 0.00 | 0.00 | 66 | 1013.8 |
| 20260505040525 | 20 | 264 | 9.7 | 29.0 | 0.00 | 0.00 | 0.00 | 66 | 1013.8 |
| 20260505040025 | 20 | 202 | 14.5 | 25.7 | 0.00 | 0.00 | 0.00 | 66 | 1013.8 |
| 20260505035525 | 20 | 172 | 12.9 | 27.4 | 0.00 | 0.00 | 0.00 | 66 | 1013.8 |
| 20260505034525 | 20 | 210 | 14.5 | 30.6 | 0.00 | 0.00 | 0.00 | 66 | 1013.8 |
| 20260505034025 | 20 | 179 | 17.7 | 30.6 | 0.00 | 0.00 | 0.00 | 67 | 1013.7 |
| 20260505033525 | 20 | 188 | 11.3 | 29.0 | 0.00 | 0.00 | 0.00 | 66 | 1013.7 |
| 20260505033025 | 20 | 193 | 6.4 | 30.6 | 0.00 | 0.00 | 0.00 | 66 | 1013.7 |
| 20260505032525 | 20 | 205 | 14.5 | 30.6 | 0.00 | 0.00 | 0.00 | 67 | 1013.7 |
| 20260505032025 | 20 | 200 | 11.3 | 30.6 | 0.00 | 0.00 | 0.00 | 67 | 1013.7 |
| 20260505031525 | 20 | 178 | 20.9 | 30.6 | 0.00 | 0.00 | 0.00 | 67 | 1013.7 |
| 20260505031025 | 20 | 212 | 20.9 | 25.7 | 0.00 | 0.00 | 0.00 | 67 | 1013.4 |
| 20260505030525 | 20 | 181 | 8.0 | 22.5 | 0.00 | 0.00 | 0.00 | 68 | 1013.4 |
| 20260505025525 | 20 | 205 | 11.3 | 40.2 | 0.00 | 0.00 | 0.00 | 67 | 1013.3 |
| 20260505025025 | 20 | 218 | 8.0 | 37.0 | 0.00 | 0.00 | 0.00 | 67 | 1013.3 |
| 20260505024525 | 20 | 159 | 14.5 | 32.2 | 0.00 | 0.00 | 0.00 | 68 | 1013.3 |
| 20260505024025 | 20 | 186 | 11.3 | 30.6 | 0.00 | 0.00 | 0.00 | 68 | 1013.3 |
| 20260505023525 | 20 | 212 | 16.1 | 27.4 | 0.00 | 0.00 | 0.00 | 67 | 1013.3 |
| 20260505023025 | 20 | 176 | 8.0 | 33.8 | 0.00 | 0.00 | 0.00 | 68 | 1013.3 |
| 20260505022525 | 20 | 191 | 17.7 | 35.4 | 0.00 | 0.00 | 0.00 | 68 | 1013.2 |
| 20260505021525 | 20 | 204 | 16.1 | 25.7 | 0.00 | 0.00 | 0.00 | 67 | 1013.2 |
| 20260505020525 | 21 | 188 | 12.9 | 32.2 | 0.00 | 0.00 | 0.00 | 67 | 1013.1 |
| 20260505020025 | 21 | 171 | 20.9 | 32.2 | 0.00 | 0.00 | 0.00 | 67 | 1013.1 |
| 20260505015525 | 21 | 165 | 17.7 | 29.0 | 0.00 | 0.00 | 0.00 | 67 | 1012.9 |
| 20260505015026 | 21 | 176 | 22.5 | 29.0 | 0.00 | 0.00 | 0.00 | 66 | 1012.9 |
| 20260505014526 | 21 | 150 | 24.1 | 24.1 | 0.00 | 0.00 | 0.00 | 66 | 1012.9 |
| 20260505014025 | 21 | 169 | 8.0 | 19.3 | 0.00 | 0.00 | 0.00 | 65 | 1013.0 |
| 20260505013525 | 21 | 182 | 9.7 | 17.7 | 0.00 | 0.00 | 0.00 | 64 | 1013.0 |
| 20260505013025 | 21 | 174 | 9.7 | 22.5 | 0.00 | 0.00 | 0.00 | 63 | 1013.0 |
| 20260505012024 | 21 | 186 | 14.5 | 20.9 | 0.00 | 0.00 | 0.00 | 58 | 1012.8 |
| 20260505011524 | 21 | 162 | 11.3 | 20.9 | 0.00 | 0.00 | 0.00 | 55 | 1012.8 |
| 20260505011025 | 22 | 196 | 9.7 | 14.5 | 0.00 | 0.00 | 0.00 | 52 | 1012.7 |
| 20260505010524 | 22 | 198 | 4.8 | 14.5 | 0.00 | 0.00 | 0.00 | 51 | 1012.7 |
| 20260505010024 | 22 | 219 | 1.6 | 8.0 | 0.00 | 0.00 | 0.00 | 48 | 1012.7 |
| 20260505005525 | 22 | 222 | 0.0 | 6.4 | 0.00 | 0.00 | 0.00 | 50 | 1012.4 |
| 20260505004524 | 22 | 222 | 6.4 | 8.0 | 0.00 | 0.00 | 0.00 | 47 | 1012.4 |
| 20260505004025 | 22 | 222 | 3.2 | 6.4 | 0.00 | 0.00 | 0.00 | 48 | 1012.2 |
| 20260505003525 | 22 | 222 | 3.2 | 4.8 | 0.00 | 0.00 | 0.00 | 47 | 1012.2 |
| 20260505003025 | 22 | 222 | 0.0 | 8.0 | 0.00 | 0.00 | 0.00 | 46 | 1012.2 |
| 20260505002024 | 23 | 222 | 8.0 | 8.0 | 0.00 | 0.00 | 0.00 | 47 | 1012.2 |
| 20260505001024 | 23 | 224 | 0.0 | 11.3 | 0.00 | 0.00 | 0.00 | 45 | 1012.1 |
| 20260505000525 | 23 | 224 | 3.2 | 11.3 | 0.00 | 0.00 | 0.00 | 44 | 1012.1 |
| 20260505000024 | 23 | 227 | 4.8 | 14.5 | 0.00 | 0.00 | 0.00 | 44 | 1012.1 |
| 20260504235524 | 23 | 237 | 3.2 | 14.5 | 0.00 | 0.00 | 0.00 | 42 | 1011.8 |
| 20260504235025 | 23 | 248 | 8.0 | 16.1 | 0.00 | 0.00 | 0.00 | 42 | 1011.8 |
| 20260504234525 | 23 | 257 | 8.0 | 17.7 | 0.00 | 0.00 | 0.00 | 42 | 1011.8 |
| 20260504234024 | 24 | 224 | 6.4 | 20.9 | 0.00 | 0.00 | 0.00 | 43 | 1011.7 |
| 20260504233524 | 24 | 214 | 8.0 | 20.9 | 0.00 | 0.00 | 0.00 | 42 | 1011.7 |
| 20260504233025 | 24 | 226 | 4.8 | 17.7 | 0.00 | 0.00 | 0.00 | 42 | 1011.7 |
| 20260504232524 | 24 | 255 | 6.4 | 20.9 | 0.00 | 0.00 | 0.00 | 42 | 1011.4 |
| 20260504231524 | 25 | 189 | 6.4 | 19.3 | 0.00 | 0.00 | 0.00 | 41 | 1011.4 |
| 20260504230524 | 25 | 201 | 8.0 | 22.5 | 0.00 | 0.00 | 0.00 | 40 | 1011.5 |
| 20260504230024 | 25 | 203 | 19.3 | 22.5 | 0.00 | 0.00 | 0.00 | 41 | 1011.5 |
| 20260504225524 | 25 | 224 | 6.4 | 16.1 | 0.00 | 0.00 | 0.00 | 40 | 1011.7 |
| 20260504225024 | 25 | 233 | 3.2 | 20.9 | 0.00 | 0.00 | 0.00 | 41 | 1011.7 |
| 20260504224524 | 25 | 232 | 12.9 | 22.5 | 0.00 | 0.00 | 0.00 | 40 | 1011.7 |
| 20260504224025 | 25 | 220 | 6.4 | 25.7 | 0.00 | 0.00 | 0.00 | 40 | 1011.7 |
| 20260504223024 | 25 | 231 | 1.6 | 22.5 | 0.00 | 0.00 | 0.00 | 39 | 1011.7 |
| 20260504222524 | 25 | 217 | 11.3 | 20.9 | 0.00 | 0.00 | 0.00 | 38 | 1011.7 |
| 20260504222024 | 25 | 189 | 4.8 | 22.5 | 0.00 | 0.00 | 0.00 | 38 | 1011.7 |
| 20260504221524 | 25 | 181 | 0.0 | 22.5 | 0.00 | 0.00 | 0.00 | 38 | 1011.7 |
| 20260504221024 | 25 | 198 | 11.3 | 19.3 | 0.00 | 0.00 | 0.00 | 39 | 1011.7 |
| 20260504220524 | 25 | 268 | 4.8 | 22.5 | 0.00 | 0.00 | 0.00 | 37 | 1011.7 |
| 20260504220024 | 25 | 209 | 6.4 | 25.7 | 0.00 | 0.00 | 0.00 | 38 | 1011.7 |
| 20260504215524 | 25 | 197 | 3.2 | 25.7 | 0.00 | 0.00 | 0.00 | 37 | 1011.7 |
| 20260504214524 | 25 | 219 | 14.5 | 24.1 | 0.00 | 0.00 | 0.00 | 37 | 1011.7 |
| 20260504214024 | 25 | 220 | 16.1 | 24.1 | 0.00 | 0.00 | 0.00 | 38 | 1011.7 |
| 20260504213524 | 25 | 158 | 1.6 | 30.6 | 0.00 | 0.00 | 0.00 | 38 | 1011.7 |
| 20260504212524 | 25 | 184 | 6.4 | 22.5 | 0.00 | 0.00 | 0.00 | 37 | 1011.8 |
| 20260504212024 | 25 | 226 | 8.0 | 25.7 | 0.00 | 0.00 | 0.00 | 37 | 1011.8 |
| 20260504211524 | 25 | 214 | 14.5 | 25.7 | 0.00 | 0.00 | 0.00 | 37 | 1011.8 |
| 20260504210524 | 25 | 195 | 6.4 | 24.1 | 0.00 | 0.00 | 0.00 | 39 | 1011.7 |
| 20260504210024 | 25 | 203 | 17.7 | 22.5 | 0.00 | 0.00 | 0.00 | 38 | 1011.7 |
| 20260504205524 | 25 | 181 | 14.5 | 22.5 | 0.00 | 0.00 | 0.00 | 37 | 1011.7 |
| 20260504205024 | 25 | 282 | 6.4 | 20.9 | 0.00 | 0.00 | 0.00 | 38 | 1011.7 |
| 20260504204524 | 25 | 223 | 16.1 | 25.7 | 0.00 | 0.00 | 0.00 | 38 | 1011.7 |
| 20260504204024 | 25 | 206 | 16.1 | 32.2 | 0.00 | 0.00 | 0.00 | 39 | 1011.9 |
| 20260504203024 | 25 | 172 | 9.7 | 24.1 | 0.00 | 0.00 | 0.00 | 39 | 1011.9 |
| 20260504202524 | 25 | 222 | 3.2 | 19.3 | 0.00 | 0.00 | 0.00 | 39 | 1012.0 |
| 20260504202024 | 25 | 194 | 9.7 | 25.7 | 0.00 | 0.00 | 0.00 | 40 | 1012.0 |
| 20260504201024 | 25 | 180 | 25.7 | 32.2 | 0.00 | 0.00 | 0.00 | 40 | 1012.1 |
| 20260504200523 | 25 | 197 | 6.4 | 20.9 | 0.00 | 0.00 | 0.00 | 41 | 1012.1 |
| 20260504200023 | 24 | 220 | 14.5 | 20.9 | 0.00 | 0.00 | 0.00 | 42 | 1012.1 |
| 20260504195524 | 24 | 176 | 16.1 | 22.5 | 0.00 | 0.00 | 0.00 | 40 | 1012.2 |
| 20260504195023 | 24 | 221 | 14.5 | 22.5 | 0.00 | 0.00 | 0.00 | 43 | 1012.2 |
| 20260504194525 | 24 | 172 | 8.0 | 25.7 | 0.00 | 0.00 | 0.00 | 42 | 1012.2 |
| 20260504194024 | 24 | 243 | 8.0 | 25.7 | 0.00 | 0.00 | 0.00 | 42 | 1012.5 |
| 20260504193523 | 24 | 255 | 11.3 | 24.1 | 0.00 | 0.00 | 0.00 | 43 | 1012.5 |
| 20260504192523 | 24 | 238 | 4.8 | 19.3 | 0.00 | 0.00 | 0.00 | 41 | 1012.7 |
| 20260504192024 | 24 | 215 | 6.4 | 19.3 | 0.00 | 0.00 | 0.00 | 41 | 1012.7 |
| 20260504191523 | 23 | 293 | 4.8 | 22.5 | 0.00 | 0.00 | 0.00 | 45 | 1012.7 |
| 20260504190523 | 23 | 293 | 19.3 | 24.1 | 0.00 | 0.00 | 0.00 | 45 | 1013.0 |
| 20260504190024 | 23 | 210 | 14.5 | 27.4 | 0.00 | 0.00 | 0.00 | 43 | 1013.0 |
| 20260504185023 | 23 | 227 | 24.1 | 25.7 | 0.00 | 0.00 | 0.00 | 43 | 1013.3 |
| 20260504184523 | 23 | 193 | 22.5 | 25.7 | 0.00 | 0.00 | 0.00 | 41 | 1013.3 |
| 20260504183523 | 23 | 233 | 16.1 | 35.4 | 0.00 | 0.00 | 0.00 | 42 | 1013.4 |
| 20260504183023 | 23 | 215 | 0.0 | 27.4 | 0.00 | 0.00 | 0.00 | 44 | 1013.4 |
| 20260504182523 | 23 | 266 | 11.3 | 27.4 | 0.00 | 0.00 | 0.00 | 45 | 1013.5 |
| 20260504182023 | 23 | 206 | 16.1 | 24.1 | 0.00 | 0.00 | 0.00 | 45 | 1013.5 |
| 20260504181023 | 23 | 166 | 4.8 | 11.3 | 0.00 | 0.00 | 0.00 | 46 | 1013.7 |
| 20260504180523 | 23 | 214 | 8.0 | 20.9 | 0.00 | 0.00 | 0.00 | 46 | 1013.7 |
| 20260504180023 | 23 | 214 | 8.0 | 20.9 | 0.00 | 0.00 | 0.00 | 45 | 1013.7 |
| 20260504175523 | 23 | 177 | 11.3 | 20.9 | 0.00 | 0.00 | 0.00 | 45 | 1013.7 |
| 20260504175023 | 23 | 206 | 17.7 | 20.9 | 0.00 | 0.00 | 0.00 | 45 | 1013.7 |
| 20260504174523 | 23 | 249 | 9.7 | 25.7 | 0.00 | 0.00 | 0.00 | 44 | 1013.7 |
| 20260504174023 | 23 | 221 | 12.9 | 25.7 | 0.00 | 0.00 | 0.00 | 44 | 1013.8 |
| 20260504173522 | 22 | 285 | 11.3 | 17.7 | 0.00 | 0.00 | 0.00 | 45 | 1013.8 |
| 20260504173022 | 22 | 190 | 6.4 | 27.4 | 0.00 | 0.00 | 0.00 | 46 | 1013.8 |
| 20260504172522 | 22 | 234 | 4.8 | 27.4 | 0.00 | 0.00 | 0.00 | 45 | 1014.0 |
| 20260504172022 | 22 | 219 | 8.0 | 25.7 | 0.00 | 0.00 | 0.00 | 44 | 1014.0 |
| 20260504171522 | 22 | 230 | 16.1 | 25.7 | 0.00 | 0.00 | 0.00 | 46 | 1014.0 |
| 20260504171022 | 22 | 195 | 19.3 | 25.7 | 0.00 | 0.00 | 0.00 | 47 | 1014.1 |
| 20260504170522 | 22 | 189 | 8.0 | 19.3 | 0.00 | 0.00 | 0.00 | 46 | 1014.1 |
| 20260504151022 | 20 | 268 | 4.8 | 19.3 | 0.00 | 0.00 | 0.00 | 53 | 1015.2 |
| 20260504150522 | 20 | 243 | 9.7 | 19.3 | 0.00 | 0.00 | 0.00 | 54 | 1015.2 |
| 20260504141022 | 18 | 230 | 12.9 | 24.1 | 0.00 | 0.00 | 0.00 | 61 | 1015.4 |
| 20260504140521 | 18 | 204 | 24.1 | 24.1 | 0.00 | 0.00 | 0.00 | 61 | 1015.4 |